Home > Weather > Surrey > Past weeks

Flag for Canada Past Weather in Surrey, British Columbia, Canada — Yesterday and Last 2 Weeks

Now
73 °F

Mild.


Feels Like: 77 °F
Forecast: 59 / 70 °F
Wind: 5 mph from South

Location: P. Meadows Coastal Station

Current Time: Aug 27, 2016 at 3:37:12 PM

Latest Report: Aug 27, 2016 at 2:00 PM


Visibility: N/A

Pressure: 29.83 "Hg

Humidity: 51%

Dew Point: 54 °F

Location of SurreyLocation

Past Weather in Surrey — Graph

°F

Surrey Temperature Yesterday

Maximum temperature yesterday: 89 °F (at 4:00 PM)
Minimum temperature yesterday: 60 °F (at 5:00 AM)
Average temperature yesterday: 73 °F

High & Low Weather Summary for the Past Weeks

 TemperatureHumidityPressure
High93 °F (Aug 19, 4:00 PM)98% (Aug 24, 7:00 AM)30.27 "Hg (Aug 24, 7:00 AM)
Low51 °F (Aug 23, 3:00 AM)21% (Aug 19, 5:00 PM)29.73 "Hg (Aug 27, 3:00 AM)
Average70 °F64%30.01 "Hg
* Reported Aug 12 2:00 PM — Aug 27 2:00 PM, Surrey, Weather by CustomWeather, © 2016

Note: Actual official high and low records may vary slightly from our data, if they occured in-between our weather recording intervals... More about our weather records

Advertising

Surrey Weather History for the Previous 24 Hours

Scroll right to see more
 ConditionsComfort  
Time TempWeatherWind HumidityBarometerVisibility
2:00 PM
Sat, Aug 27
73 °FMild.5 mph51%29.83 "HgN/A
1:00 PM69 °FMild.5 mph56%29.82 "HgN/A
12:00 PM69 °FMild.5 mph58%29.80 "HgN/A
11:00 AM68 °FMild.6 mph62%29.79 "HgN/A
10:00 AM68 °FMild.3 mph69%29.78 "HgN/A
9:00 AM67 °FMild.3 mph73%29.76 "HgN/A
8:00 AM66 °FMild.3 mph78%29.76 "HgN/A
7:00 AM62 °FCool.2 mph85%29.75 "HgN/A
6:00 AM61 °FCool.2 mph86%29.74 "HgN/A
5:00 AM60 °FCool.3 mph84%29.73 "HgN/A
4:00 AM61 °FCool.1 mph81%29.73 "HgN/A
3:00 AM62 °FCool.2 mph81%29.73 "HgN/A
2:00 AM62 °FCool.2 mph83%29.74 "HgN/A
1:00 AM64 °FMild.1 mph80%29.75 "HgN/A
12:00 AM65 °FMild.No wind79%29.75 "HgN/A
11:00 PM
Fri, Aug 26
68 °FMild.No wind65%29.76 "HgN/A
10:00 PM69 °FMild.1 mph68%29.77 "HgN/A
9:00 PM71 °FMild.1 mph57%29.78 "HgN/A
8:00 PM80 °FPleasantly warm.1 mph36%29.78 "HgN/A
7:00 PM84 °FPleasantly warm.3 mph30%29.78 "HgN/A
6:00 PM85 °FPleasantly warm.2 mph30%29.80 "HgN/A
5:00 PM87 °FPleasantly warm.3 mph31%29.82 "HgN/A
4:00 PM89 °FHot.3 mph25%29.83 "HgN/A
3:00 PM89 °FHot.1 mph29%29.85 "HgN/A
Weather by CustomWeather, © 2016

See weather overviewHow to use our weather pages